Starlink 4068

operational
NORAD ID: 52681 Int'l Des: 2022-053 Owner: SPXS Country: US Constellation: starlink
LEOCIRCULAR

Starlink 4068について

説明を読み込み中...

リアルタイム位置

3D地球を読み込み中...

次回通過

高度履歴

Altitude vs Time

uPlot chart will show altitude changes over time

軌道要素

1 52681U 22053AB 26062.51708324 .00003068 00000-0 21068-3 0 9997
2 52681 53.2163 171.8288 0001225 93.4265 266.6867 15.08858124210206
Epoch: Mar 3, 2026 • Age: 30 hours

現在のステータス

高度 558.9 km
速度 7.58 km/s
衛星直下点 -52.93°S, 156.13°W
打ち上げ日 May 18, 2022
運用期間 3.7 years
タイプ internet

技術仕様

分類 Payload
質量 297.00 kg
乾燥質量 275.00 kg
総質量 297.00 kg
長さ 0.20 m
直径 2.80 m
スパン 9.00 m
形状 Box + pan
製造者 SPXS
バスタイプ Starlink
フェーズステータス In Orbit
所有者/国 SPXS/US

大規模コンステレーション

Loading constellations...